Location: Bellstedt
(51.2728°N, 10.7875°E)
Time: 17:53:33
(UTC+00:00)

Daily predictions for brighter satellites

Satellite Brightness Start Highest point End
(mag) Time Altitude Azimuth Time Altitude Azimuth Time Altitude Azimuth
Cosmos 1703 3.3 20:17:55 10° S 20:21:45 66° E 20:25:38 10° NNE
COSMOS 2428 3.7 20:18:07 10° SSE 20:22:51 28° ESE 20:27:37 10° NE
Cosmos 1844 3.9 20:17:23 10° NNW 20:23:12 81° WSW 20:28:55 10° SSE
Cosmos 2322 4.0 20:21:09 10° S 20:26:35 47° ESE 20:32:03 10° NE
CZ-4B DEB 4.4 20:28:41 10° SSE 20:32:02 78° ENE 20:35:24 10° N
Cosmos 783 Rocket 4.5 20:27:31 10° SSW 20:32:44 71° ESE 20:37:56 10° NNE
Cosmos 1709 Rocket 4.1 20:27:10 10° S 20:33:24 70° E 20:39:45 10° NNE
Atlas Centaur 2 4.3 20:34:17 10° SSW 20:35:58 11° S 20:37:42 10° SSE
Terra 2.2 20:31:54 10° SE 20:36:30 52° ENE 20:41:08 10° N
Cosmos 2237 Rocket 3.9 20:33:40 10° SE 20:36:51 15° E 20:40:03 10° ENE
CARTOSAT-1 3.6 20:33:20 10° SSE 20:37:38 76° ENE 20:41:58 10° N
Cosmos 2333 4.4 20:32:52 10° S 20:38:21 54° ESE 20:43:55 10° NE
Cosmos 2219 Rocket 2.7 20:33:39 10° S 20:38:48 40° ESE 20:43:59 10° NE
Cosmos 2360 Rocket 2.3 20:34:57 10° SSW 20:40:37 85° WNW 20:46:21 10° NNE
IGS 5A 4.1 20:36:48 10° S 20:40:52 54° W 20:44:58 10° NNW
Cosmos 2333 Rocket 2.5 20:43:05 10° S 20:48:32 50° ESE 20:54:03 10° NE
Cosmos 1315 Rocket 3.0 20:46:20 10° N 20:50:26 68° ENE 20:54:13 12° SSE
ATLAS 2AS CENTAUR R/B 3.5 20:43:16 10° NW 20:50:54 56° NNE 20:57:55 10° ESE
Resurs 01 Rocket 3.9 20:49:39 10° SW 20:53:00 21° W 20:56:22 10° NW
Cosmos-2242 3.9 20:49:39 10° NNW 20:53:50 47° W 20:58:01 10° SSW
Cosmos 1818 3.7 20:50:29 10° SW 20:55:56 82° NW 21:01:26 10° NE
Cosmos 773 Rocket 4.0 20:53:16 10° SSW 20:58:34 77° ESE 21:03:53 10° NNE
Cosmos 2221 3.0 20:54:35 10° N 20:58:52 49° ENE 21:02:29 14° SSE
SL-16 R/B 4.0 20:54:39 10° WSW 20:59:53 36° NW 21:05:08 10° NNE
ERS-1 Rocket 3.3 20:57:08 10° S 21:02:08 66° WSW 21:07:11 10° NNW
GEOS 3 Rocket 3.7 20:57:00 10° NE 21:02:26 83° SE 21:07:50 10° SW
USA 215 3.4 20:59:23 10° ENE 21:05:47 53° SE 21:12:09 10° SW
Cosmos 2278 Rocket 2.4 21:02:31 10° NNW 21:08:12 69° ENE 21:13:09 14° SE
Cosmos 1892 3.9 21:07:01 15° SE 21:09:23 26° E 21:12:35 10° NNE
ATLAS 5 CENTAUR R/B 1.9 21:08:20 10° SW 21:12:34 72° NW 21:17:25 10° NE
Cosmos 1844 Rocket 4.1 21:07:51 10° NW 21:12:39 31° WSW 21:17:26 10° SSW
Meteor 1-11 4.4 21:07:30 10° SSW 21:13:08 81° WNW 21:18:52 10° N
Gblst 52 Del rocket 4.4 21:09:09 10° WNW 21:14:44 60° SSW 21:20:33 12° SE
Cosmos 1943 Rocket 4.3 21:11:26 10° NNW 21:15:42 21° NE 21:19:55 10° E
SPOT 5 3.5 21:13:58 10° S 21:18:54 54° W 21:23:36 10° NNW
Lacrosse 5 rocket 3.0 21:17:05 10° WNW 21:20:59 36° N 21:24:41 10° ENE
SL-16 R/B 4.1 21:18:56 10° ESE 21:21:16 13° E 21:23:40 10° ENE
Cosmos 2056 Rocket 4.5 21:17:51 10° NNW 21:22:58 41° NE 21:27:39 12° SE
Nadezhda 3 Rocket 4.4 21:17:48 10° N 21:24:05 57° ENE 21:29:11 16° SSE
USA 81 4.4 21:20:45 10° SSW 21:26:00 68° W 21:31:18 10° N
BREEZE M DEB (TANK) 4.0 21:26:46 10° WSW 21:27:32 11° SW 21:27:39 11° SSW
Cosmos 2058 3.4 21:25:00 18° SSE 21:27:48 43° E 21:31:44 10° NNE
Cosmos 2154 Rocket 4.4 21:23:03 15° SSE 21:27:56 47° E 21:33:51 10° NNE
Cosmos 1408 3.8 21:29:06 18° SE 21:30:50 27° E 21:33:54 10° NNE
In-Cosmos 22 Rocket 4.2 21:29:55 15° S 21:34:11 58° E 21:39:26 10° NNE
TSX-5 3.6 21:31:31 10° NW 21:34:57 79° WSW 21:37:36 20° SSE
Cosmos 2074 Rocket 4.0 21:29:15 11° S 21:35:11 80° E 21:41:26 10° NNE
Cosmos 1076 Rocket 3.8 21:36:08 19° SSE 21:39:00 50° E 21:43:09 10° NNE
Cosmos 1680 Rocket 4.0 21:35:41 17° SSE 21:39:26 42° ESE 21:44:27 10° NE
USA 267 3.3 21:34:04 13° SE 21:39:58 70° SW 21:46:32 10° WNW
CZ-4C R/B 4.2 21:38:11 10° NW 21:44:09 36° NNE 21:51:08 10° E
Cosmos 1842 Rocket 4.2 21:41:25 10° NNW 21:45:39 50° W 21:49:02 15° SSW
JB-3 4.2 21:43:06 10° NNE 21:46:59 88° WNW 21:49:57 16° SSW
COSMOS 2455 4.1 21:42:31 10° NNW 21:48:06 37° NE 21:53:40 10° ESE
Cosmos 2151 4.1 21:47:18 19° SE 21:49:31 30° E 21:53:17 10° NNE
MTI 3.9 21:47:53 10° N 21:50:58 66° WNW 21:53:10 17° SSW
ATLAS CENTAUR R/B 2.8 21:53:52 10° WNW 21:56:44 21° WSW 21:58:26 16° SSW
Cosmos 923 Rocket 4.0 21:52:20 14° SSW 21:56:53 73° ESE 22:02:12 10° NNE
Cosmos 2327 Rocket 4.5 21:52:14 16° S 21:57:22 81° E 22:03:31 10° NNE
Cosmos 1825 2.9 21:58:08 24° SSE 21:59:54 39° E 22:03:29 10° NNE
Cosmos 2369 Rocket 4.0 21:55:38 10° NNW 22:00:20 26° NE 22:05:01 10° E
Cosmos 1151 Rocket 4.3 21:56:37 10° N 22:00:31 31° ENE 22:03:13 17° SE
ALOS 2 3.4 21:58:03 18° SE 22:00:56 43° ENE 22:05:06 10° N
Cosmos 1980 3.7 21:56:55 14° SSW 22:01:44 65° ESE 22:07:21 10° NE
Cosmos 967 Rocket 4.5 21:57:34 10° SSW 22:04:02 76° SE 22:10:30 10° NE
Cosmos 44 4.4 22:05:15 20° SE 22:06:12 21° ESE 22:09:33 10° ENE
COSMOS 2428 3.2 22:01:10 10° SW 22:06:46 61° NW 22:12:25 10° NNE
Cosmos 371 Rocket 4.2 22:03:27 10° NNW 22:08:06 42° ENE 22:11:47 15° SE
GP-B 4.0 22:04:52 10° NNE 22:09:01 36° E 22:11:23 21° SE
Cosmos 1295 Rocket 4.5 22:06:31 19° S 22:11:05 75° E 22:17:11 10° NNE
Cosmos 1624 Rocket 4.0 22:08:19 10° NNW 22:13:36 89° WSW 22:16:57 23° SSE
NOSS 0 Rocket 3.9 22:07:59 10° SSW 22:14:09 87° ESE 22:20:22 10° NNE
NOSS 3-4 (A) 3.9 22:07:18 10° NW 22:14:10 69° SW 22:19:46 19° SSE
NOSS 3-4 (C) 3.9 22:07:24 10° NW 22:14:16 70° SW 22:19:55 19° SSE
Terra 3.6 22:10:41 10° SSW 22:14:32 24° W 22:18:26 10° NW
Cosmos 2237 Rocket 2.2 22:14:58 13° SSW 22:20:00 81° ESE 22:25:45 10° NNE
SL-4 R/B 2.6 22:19:54 17° ENE 22:20:09 17° ENE 22:21:39 10° NNE
Genesis I 3.4 22:18:36 25° S 22:20:36 51° SE 22:24:24 10° NE
Cosmos 2344 3.7 22:16:02 13° SSW 22:22:42 56° ESE 22:30:36 10° NE
Cosmos 2219 Rocket 3.3 22:17:23 10° WSW 22:22:43 44° NW 22:28:07 10° NNE
Elektron 1 4.5 22:21:21 17° SW 22:23:55 70° SE 22:29:53 10° NE
NOSS 3-3 (A) 4.4 22:19:34 10° WSW 22:25:34 66° NW 22:32:27 10° NE
NOSS 3-3 (C) 4.4 22:19:40 10° WSW 22:25:40 66° NW 22:32:34 10° NE
Thor Agena Rocket 3.5 22:24:26 10° NNE 22:29:36 84° WNW 22:33:18 19° SSW
Cosmos 2333 Rocket 3.6 22:27:41 10° WSW 22:33:00 38° NW 22:38:21 10° NNE
RESURS DK-1 4.4 22:35:22 10° NNW 22:38:46 24° NE 22:42:09 10° E
Cosmos 1515 Rocket 4.3 22:36:37 10° N 22:40:48 44° ENE 22:43:15 22° SE
Cosmos 1371 Rocket 4.5 22:36:11 10° NNW 22:41:15 50° WSW 22:44:15 24° S
BREEZE-M DEB (TANK) 2.0 22:38:05 10° W 22:41:21 36° SSW 22:41:21 36° SSW
ATLAS 2AS CENTAUR R/B 3.1 22:34:39 10° NW 22:41:58 54° WSW 22:46:25 22° S
EO 1 Del DPAF 3.6 22:39:01 10° N 22:42:45 60° WNW 22:44:59 22° SW
Cosmos 1892 4.3 22:41:59 12° SW 22:45:00 29° WNW 22:48:22 10° N
Cosmos 1766 Rocket 3.5 22:44:24 28° S 22:46:39 74° E 22:51:04 10° NNE
Cosmos 1328 Rocket 3.5 22:43:55 10° N 22:48:15 83° E 22:50:25 29° SSE
Aureole 2 Rocket 2.3 22:45:41 10° NW 22:48:27 51° WSW 22:48:59 43° SSW
Gbstr 26 Del rocket 4.3 22:49:28 20° SE 22:49:28 20° SE 22:51:56 10° E
USA 215 3.5 22:42:28 10° ENE 22:49:01 74° NNW 22:55:33 10° WSW
Okean 3 Rocket 3.5 22:47:02 27° S 22:49:29 89° E 22:53:56 10° N
Cosmos 1606 2.8 22:46:43 10° NNW 22:50:36 73° W 22:52:19 32° S
Cosmos 2278 Rocket 3.7 22:47:20 10° NW 22:51:48 24° WSW 22:54:59 15° SW
Cosmos 2112 Rocket 4.4 22:48:24 14° SW 22:53:01 65° WNW 22:58:23 10° NNE
Cosmos 2297 3.8 22:48:01 10° NNW 22:53:45 70° WSW 22:57:11 25° SSE
Cosmos 304 Rocket 4.4 22:49:52 10° NNW 22:54:37 52° ENE 22:58:04 18° SE
Cosmos 2218 Rocket 4.1 22:50:54 23° S 22:55:00 73° E 23:01:18 10° NNE
Cosmos 2228 Rocket 4.2 22:52:07 10° N 22:56:26 38° ENE 22:59:19 18° SE
Cosmos 158 Rocket 4.4 22:52:57 13° SW 22:57:14 54° WNW 23:02:05 10° NNE
Cosmos 1420 Rocket 4.0 22:52:16 10° NNW 22:57:33 75° WSW 23:00:36 26° SSE
ATLAS 5 CENTAUR R/B 4.2 22:54:14 10° WNW 22:58:03 25° NNW 23:02:20 10° NE
Cosmos 1943 Rocket 2.3 22:54:45 10° NNW 23:00:28 73° ENE 23:04:40 19° SE
Cosmos 2366 rocket 4.1 22:56:35 23° S 23:00:41 76° E 23:07:03 10° NNE
Lacrosse 5 rocket 1.9 22:56:42 10° WNW 23:00:42 55° NNE 23:04:28 10° E
Cosmos 1633 3.5 23:01:11 27° SE 23:02:26 36° E 23:05:47 10° NNE
SL-16 R/B 2.2 23:00:47 23° SSW 23:04:20 70° ESE 23:10:01 10° NNE
Cosmos 2056 Rocket 4.4 23:00:07 10° NW 23:05:07 39° WSW 23:07:58 22° SSW
Cosmos 1408 4.4 23:03:24 13° WSW 23:05:50 25° WNW 23:08:52 10° NNW
Cosmos 1959 Rocket 4.4 23:06:20 24° S 23:10:18 88° ESE 23:16:34 10° N
YAOGAN 11 4.1 23:09:09 28° SSE 23:11:28 82° ENE 23:15:56 10° NNW
Cosmos 1743 Rocket 4.1 23:12:36 27° SSE 23:14:36 46° E 23:18:46 10° NNE
Cosmos 2341 Rocket 4.4 23:11:47 18° SSW 23:16:27 56° WNW 23:22:35 10° N
Cosmos 332 Rocket 3.8 23:14:08 10° NNW 23:18:57 73° WSW 23:21:28 28° S
USA 267 4.4 23:21:24 20° SSW 23:23:46 24° SW 23:28:58 10° WNW
Meteor 2-3 Rocket 3.7 23:21:02 25° S 23:24:29 90° ESE 23:30:15 10° NNE
Helios 1A 3.2 23:24:53 30° S 23:26:44 58° WSW 23:30:52 10° NNW
Cosmos 2151 4.4 23:23:52 15° SW 23:26:46 32° WNW 23:30:38 10° N
Cosmos 405 2.9 23:24:15 10° NNW 23:27:49 88° W 23:29:08 37° S
Cosmos 1452 Rocket 3.7 23:27:08 10° NNW 23:32:19 58° WSW 23:35:06 26° S
CZ-4C R/B 3.0 23:26:44 10° NW 23:33:41 79° NE 23:41:51 10° SE
Meteor 2-6 Rocket 4.3 23:28:45 10° N 23:34:17 69° ENE 23:37:54 21° SSE
COSMOS 2455 2.9 23:28:28 10° NW 23:34:28 66° WSW 23:38:24 22° SSE
PSLV R/B 3.9 23:30:28 10° NNE 23:34:36 51° E 23:36:34 28° SSE
SL-8 Rocket 4.4 23:30:59 19° SW 23:35:25 54° WNW 23:41:28 10° N
Cosmos 1825 4.3 23:32:56 11° WSW 23:35:35 20° WNW 23:38:29 10° NNW
Cosmos 1340 3.1 23:34:23 27° SW 23:36:08 53° WNW 23:39:52 10° N
Cosmos 1110 Rocket 4.2 23:31:01 10° NNW 23:36:19 73° ENE 23:40:16 18° SSE
Cosmos 1933 4.5 23:32:57 10° NNW 23:36:32 32° W 23:38:13 23° SW
ALOS 2 4.1 23:35:27 18° SW 23:37:25 25° W 23:41:06 10° NW
Cosmos 1151 Rocket 4.2 23:34:13 10° NNW 23:38:04 31° W 23:40:03 21° SW
Cosmos 1408 Rocket 3.9 23:35:56 25° SSW 23:38:17 58° WNW 23:42:40 10° N
SL-16 R/B 3.9 23:33:22 10° ESE 23:38:55 35° ENE 23:44:29 10° N
Cosmos 1603 4.4 23:36:25 23° SSE 23:39:24 41° ESE 23:44:44 10° NE
Cosmos 1727 Rocket 4.2 23:38:03 10° NNW 23:44:09 60° W 23:48:04 23° SSW
APEX 3.7 23:42:13 10° NW 23:44:22 25° WSW 23:44:22 25° WSW
Resurs 1-4 Rocket 4.1 23:41:06 10° NE 23:44:47 19° E 23:48:26 10° SE
Cosmos 2369 Rocket 2.1 23:39:21 10° NNW 23:44:59 79° WSW 23:48:49 21° SSE
Cosmos 44 3.4 23:43:38 16° SW 23:46:58 64° NW 23:51:27 10° NE
Cosmos 1500 Rocket 3.5 23:44:49 29° S 23:47:03 90° WNW 23:51:28 10° N
Cosmos 371 Rocket 4.4 23:44:08 10° NW 23:48:24 31° WSW 23:50:25 23° SW
SL-4 R/B 3.3 23:48:59 11° WNW 23:48:59 11° WNW 23:49:14 10° WNW
SeaSat 1 4.1 23:45:08 10° NE 23:48:53 21° ESE 23:51:20 15° SE
ISS -1.4 23:51:00 12° ESE 23:51:00 12° ESE 23:51:48 10° ESE
Helios 1B rocket 2.5 23:49:17 10° NNE 23:53:25 66° ESE 23:55:23 29° S
